Location: Risskov
(56.1972°N, 10.2480°E)
Time: 07:29:09
(UTC+00:00)

N. Korean satellite - Visible Passes

Search period start: 28 November 2022 00:00
Search period end: 08 December 2022 00:00
Orbit: 422 x 454 km, 97.3° (Epoch: 27 November)

Date Brightness Start Highest point End Pass type
(mag) Time Alt. Az. Time Alt. Az. Time Alt. Az.
28 Nov 8.3 04:14:52 10° NNE 04:17:59 31° E 04:21:04 10° SSE visible
28 Nov 7.3 05:47:27 10° N 05:50:28 29° WNW 05:53:28 10° SW visible
28 Nov 9.0 16:24:25 10° SSW 16:27:16 25° W 16:30:09 10° NW visible
29 Nov 9.7 03:37:11 10° NE 03:39:00 14° E 03:40:47 10° ESE visible
29 Nov 6.3 05:08:31 10° N 05:11:57 70° WNW 05:15:21 10° SSW visible
29 Nov 7.0 15:45:04 10° S 15:48:25 63° WSW 15:51:49 10° NNW visible
30 Nov 7.6 04:29:53 10° NNE 04:33:13 44° E 04:36:30 10° S visible
30 Nov 7.7 06:02:50 10° N 06:05:32 21° WNW 06:08:12 10° WSW visible
30 Nov 9.5 16:40:06 10° SW 16:42:31 18° W 16:44:57 10° NW visible
01 Dec 9.2 03:51:45 10° NE 03:54:15 19° E 03:56:43 10° SE visible
01 Dec 6.6 05:23:41 10° N 05:27:01 48° WNW 05:30:19 10° SW visible
01 Dec 7.8 16:00:17 10° S 16:03:31 43° W 16:06:50 10° NNW visible
02 Dec 6.8 04:44:52 10° NNE 04:48:18 65° ESE 04:51:41 10° S visible
02 Dec 8.0 06:18:13 10° NNW 06:20:26 16° WNW 06:22:38 10° W visible
02 Dec 9.8 16:55:58 10° WSW 16:57:41 13° W 16:59:23 10° WNW visible
03 Dec 8.7 04:06:26 10° NE 04:09:21 25° E 04:12:14 10° SSE visible
03 Dec 7.0 05:38:47 10° N 05:41:56 34° WNW 05:45:03 10° SW visible
03 Dec 8.6 16:15:31 10° SSW 16:18:33 30° W 16:21:38 10° NNW visible
04 Dec 9.9 03:29:08 10° ENE 03:30:10 11° E 03:31:12 10° ESE visible
04 Dec 6.3 04:59:47 10° NNE 05:03:14 87° WNW 05:06:38 10° SSW visible
04 Dec 8.3 06:33:40 10° NNW 06:35:11 13° NW 06:36:43 10° W visible
04 Dec 6.6 15:36:12 10° SSE 15:39:36 79° WSW 15:43:03 10° NNW visible
05 Dec 8.0 04:21:07 10° NNE 04:24:18 35° E 04:27:26 10° SSE visible
05 Dec 7.4 05:53:50 10° N 05:56:42 25° WNW 05:59:33 10° WSW visible
05 Dec 9.2 16:30:46 10° SW 16:33:29 22° W 16:36:14 10° NW visible
06 Dec 9.5 03:43:03 10° NE 03:45:08 15° E 03:47:12 10° SE visible
06 Dec 6.3 05:14:37 10° N 05:18:01 60° WNW 05:21:22 10° SSW visible
06 Dec 7.3 15:51:03 10° S 15:54:24 54° W 15:57:47 10° NNW visible
07 Dec 7.3 04:35:44 10° NNE 04:39:06 50° E 04:42:24 10° S visible
07 Dec 7.8 06:08:49 10° NNW 06:11:20 19° WNW 06:13:48 10° WSW visible
07 Dec 9.6 16:46:06 10° SW 16:48:19 16° W 16:50:33 10° NW visible
